Flag for Germany Weather past 2 weeks in Bretten, Baden-Württemberg, Germany

Now
63 °F

Sunny.


Feels Like: 63 °F
Forecast: 46 / 70 °F
Wind: 1 mph from North

Location: Baden Wurttemberg - Neuostheim

Current Time: Aug 20, 2014 at 10:29:31 PM

Latest Report: Aug 20, 2014 at 9:20 PM


Visibility: 10 mi

Pressure: 30.01 "Hg

Humidity: 59%

Dew point: 48 °F

Location of BrettenLocation

Historic Weather in Bretten — Graph

°F

Bretten temperature yesterday

Maximum temperature yesterday: 72 °F (at 5:50 PM)
Minimum temperature yesterday: 52 °F (at 3:20 AM)
Average temperature yesterday: 61 °F

Past Weeks' High & Low Weather Summary

 TemperatureHumidityPressure
High81 °F (Aug 8, 1:50 PM)100% (Aug 10, 7:50 AM)30.12 "Hg (Aug 10, 7:50 AM)
Low48 °F (Aug 20, 5:50 AM)36% (Aug 12, 4:50 PM)29.65 "Hg (Aug 13, 1:50 PM)
Average67 °F65%29.92 "Hg
* Reported Aug 5 9:20 PM — Aug 20 9:20 PM, Bretten, Weather by CustomWeather, © 2014

Note: Actual official high and low records may vary slightly from our data, if they occured in-between our weather recording intervals... More about our weather records

Advertising

Bretten weather history for previous 24 hours

 ConditionsComfort  
Time TempWeatherWind HumidityBarometerVisibility
9:20 PM
Aug 20
63 °FSunny.1 mph59%30.01 "Hg10 mi
8:50 PM63 °FSunny.2 mph59%30.01 "Hg10 mi
8:20 PM63 °FSunny.2 mph56%30.01 "Hg10 mi
7:50 PM64 °FPartly sunny.3 mph49%30.01 "HgN/A
7:20 PM64 °FPartly sunny.3 mph49%30.01 "HgN/A
6:50 PM64 °FScattered showers. Scattered clouds.6 mph49%30.01 "HgN/A
6:20 PM64 °FScattered showers. Passing clouds.7 mph46%30.01 "HgN/A
5:50 PM66 °FPassing clouds.7 mph46%30.01 "HgN/A
5:20 PM66 °FSunny.6 mph43%30.01 "Hg10 mi
4:50 PM66 °FPassing clouds.6 mph43%30.01 "HgN/A
4:20 PM66 °FSunny.5 mph40%30.01 "Hg10 mi
3:50 PM66 °FPassing clouds.5 mph40%30.01 "HgN/A
3:20 PM64 °FSunny.5 mph46%30.04 "Hg10 mi
2:50 PM64 °FSunny.3 mph43%30.04 "Hg10 mi
2:20 PM64 °FPassing clouds.5 mph46%30.04 "HgN/A
1:50 PM64 °FScattered clouds.5 mph46%30.04 "HgN/A
1:20 PM64 °FBroken clouds.3 mph46%30.04 "HgN/A
12:50 PM64 °FBroken clouds.2 mph43%30.04 "HgN/A
12:20 PM63 °FBroken clouds.3 mph45%30.04 "HgN/A
11:50 AM63 °FSunny.3 mph56%30.04 "Hg10 mi
11:20 AM61 °FSunny.5 mph55%30.07 "Hg10 mi
10:50 AM59 °FPassing clouds.5 mph63%30.07 "HgN/A
10:20 AM59 °FSunny.3 mph68%30.07 "Hg10 mi
9:50 AM57 °FSunny.3 mph72%30.07 "Hg10 mi
9:20 AM57 °FSunny.3 mph77%30.07 "Hg10 mi
8:50 AM55 °FSunny.2 mph77%30.07 "Hg10 mi
8:20 AM55 °FSunny.2 mph77%30.04 "Hg10 mi
7:50 AM54 °FSunny.No wind82%30.04 "Hg10 mi
7:20 AM52 °FClear.1 mph88%30.04 "Hg10 mi
6:50 AM50 °FClear.2 mph94%30.04 "Hg10 mi
6:20 AM48 °FClear.1 mph94%30.04 "Hg10 mi
5:50 AM48 °FClear.2 mph87%30.04 "Hg10 mi
5:20 AM50 °FClear.2 mph88%30.04 "Hg10 mi
Weather by CustomWeather, © 2014

See weather overviewHow to use our weather pages